Location: Newark
(50.0306°N, 2.3272°E)
Time: 10:31:30
(UTC+00:00)

Explorer 11/Cluster Stage 4 - All Passes

Search period start: 15 December 2019 00:00
Search period end: 25 December 2019 00:00
Orbit: 467 x 1259 km, 28.8° (Epoch: 15 December)

Date Brightness Start Highest point End Pass type
(mag) Time Alt. Az. Time Alt. Az. Time Alt. Az.
15 Dec - 09:52:39 10° SSW 09:54:45 11° S 09:56:47 10° SSE daylight
16 Dec - 07:54:15 10° S 07:56:14 11° S 07:58:10 10° SSE daylight
16 Dec - 09:41:09 10° SSW 09:43:47 12° S 09:46:17 10° SSE daylight
17 Dec - 07:42:21 10° SSW 07:45:13 12° S 07:48:00 10° SSE daylight
17 Dec - 09:29:50 10° SSW 09:32:48 13° S 09:35:38 10° SSE daylight
18 Dec - 07:30:45 10° SSW 07:34:11 13° S 07:37:32 10° SSE daylight
18 Dec - 09:18:37 10° SSW 09:21:47 13° S 09:24:50 10° SSE daylight
19 Dec - 07:19:19 10° SSW 07:23:08 14° S 07:26:53 10° SE daylight
19 Dec - 09:07:28 10° SW 09:10:46 13° S 09:13:55 10° SSE daylight
20 Dec - 07:08:00 10° SSW 07:12:05 15° S 07:16:06 10° SE visible
20 Dec - 08:56:26 10° SW 08:59:43 13° SSW 09:02:54 10° SSE daylight
21 Dec - 05:12:13 10° S 05:13:25 10° SSE 05:14:38 10° SSE visible
21 Dec - 06:56:48 10° SSW 07:01:01 15° S 07:05:13 10° SE visible
21 Dec - 08:45:31 10° SW 08:48:40 13° SSW 08:51:44 10° S daylight
22 Dec - 05:00:17 10° S 05:02:21 11° SSE 05:04:27 10° SSE visible
22 Dec - 06:45:41 10° SSW 06:49:58 15° S 06:54:14 10° SSE visible
22 Dec - 08:34:42 10° SW 08:37:36 12° SSW 08:40:26 10° S daylight
23 Dec - 04:48:48 10° S 04:51:17 12° SSE 04:53:49 10° SE visible
23 Dec - 06:34:40 10° SSW 06:38:54 15° S 06:43:10 10° SSE visible
23 Dec - 08:24:05 10° SW 08:26:32 12° SSW 08:28:58 10° S daylight
24 Dec - 04:37:32 10° S 04:40:13 12° SSE 04:43:01 10° SE visible
24 Dec - 06:23:44 10° SSW 06:27:49 15° S 06:32:01 10° SSE visible
24 Dec - 08:13:47 10° SSW 08:15:27 11° SSW 08:17:07 10° S daylight
